RYR4QJ LFOB-LIMC

Flight info

Callsign RYR4QJ
Flight time 1h 16m
Altitude 31000
Route BUBLI DCT LUVAL DCT SHARA DCT DEVDI DCT RIPUS DCT GERSA DCT SOSON DCT DEGAD DCT BASGO Z424 RIXUV
Aircraft B738/M-SDE3FGILRWY/SB1

Departure

Time 2026-05-01 11:57
Airport Beauvais-Tillé airport (LFOB)

Arrival

Time 2026-05-01 13:14
Airport Milan Malpensa International Airport (LIMC)
Time Latitude Longitude Altitude Speed Heading
2026-05-01 11:29 49.45827 2.11115 347 ft 0 kts 33°
2026-05-01 11:50 49.45811 2.11099 358 ft 4 kts 33°
2026-05-01 11:51 49.45788 2.11083 350 ft 4 kts 359°
2026-05-01 11:51 49.45765 2.11095 357 ft 4 kts 311°
2026-05-01 11:51 49.45757 2.11110 354 ft 1 kts 303°
2026-05-01 11:51 49.45757 2.11111 354 ft 0 kts 303°
2026-05-01 11:54 49.45767 2.11089 354 ft 6 kts 303°
2026-05-01 11:54 49.45788 2.11007 351 ft 9 kts 252°
2026-05-01 11:54 49.45745 2.10955 349 ft 8 kts 208°
2026-05-01 11:55 49.45690 2.10911 353 ft 10 kts 207°
2026-05-01 11:55 49.45652 2.10834 353 ft 10 kts 275°
2026-05-01 11:55 49.45700 2.10690 355 ft 19 kts 304°
2026-05-01 11:55 49.45778 2.10530 355 ft 14 kts 306°
2026-05-01 11:56 49.45838 2.10453 363 ft 8 kts 298°
2026-05-01 11:56 49.45810 2.10436 362 ft 6 kts 147°
2026-05-01 11:56 49.45777 2.10512 359 ft 12 kts 123°
2026-05-01 11:56 49.45721 2.10636 356 ft 25 kts 123°
2026-05-01 11:57 49.45466 2.11228 349 ft 106 kts 123°
2026-05-01 11:57 49.44922 2.12464 398 ft 167 kts 123°
2026-05-01 11:57 49.44243 2.14124 911 ft 197 kts 122°
2026-05-01 11:57 49.43702 2.16111 1769 ft 202 kts 107°
2026-05-01 11:58 49.43471 2.18257 2714 ft 208 kts 93°
2026-05-01 11:58 49.43537 2.20544 3371 ft 225 kts 86°
2026-05-01 11:58 49.43649 2.25806 4547 ft 249 kts 121°
2026-05-01 11:59 49.42531 2.27629 5901 ft 226 kts 149°
2026-05-01 11:59 49.41147 2.28520 7101 ft 209 kts 171°
2026-05-01 11:59 49.39735 2.28596 8066 ft 203 kts 189°
2026-05-01 12:00 49.36960 2.27001 9039 ft 236 kts 201°
2026-05-01 12:00 49.35359 2.25969 9318 ft 264 kts 201°
2026-05-01 12:00 49.31685 2.25149 10670 ft 277 kts 159°
2026-05-01 12:01 49.30041 2.26643 11584 ft 277 kts 139°
2026-05-01 12:01 49.28677 2.28731 12446 ft 279 kts 134°
2026-05-01 12:01 49.27342 2.30902 13309 ft 280 kts 134°
2026-05-01 12:01 49.25993 2.33075 14140 ft 283 kts 135°
2026-05-01 12:02 49.24622 2.35249 14882 ft 285 kts 135°
2026-05-01 12:02 49.23227 2.37446 15427 ft 296 kts 136°
2026-05-01 12:02 49.21760 2.39911 15583 ft 321 kts 130°
2026-05-01 12:02 49.20403 2.42763 15826 ft 341 kts 127°
2026-05-01 12:03 49.19055 2.45790 16417 ft 347 kts 126°
2026-05-01 12:03 49.17693 2.48855 17152 ft 350 kts 127°
2026-05-01 12:03 49.16307 2.51925 17881 ft 352 kts 127°
2026-05-01 12:03 49.14898 2.55008 18569 ft 356 kts 127°
2026-05-01 12:04 49.13466 2.58112 19170 ft 359 kts 127°
2026-05-01 12:04 49.12019 2.61230 19802 ft 361 kts 127°
2026-05-01 12:04 49.10562 2.64361 20433 ft 363 kts 127°
2026-05-01 12:04 49.09105 2.67545 20943 ft 369 kts 124°
2026-05-01 12:05 49.07847 2.70991 21522 ft 374 kts 119°
2026-05-01 12:05 49.05632 2.78200 22786 ft 378 kts 117°
2026-05-01 12:05 49.04530 2.81855 23361 ft 380 kts 117°
2026-05-01 12:06 49.03411 2.85515 23937 ft 382 kts 117°
2026-05-01 12:06 49.02272 2.89180 24425 ft 384 kts 118°
2026-05-01 12:06 49.01115 2.92861 24892 ft 386 kts 118°
2026-05-01 12:06 48.99945 2.96555 25349 ft 389 kts 118°
2026-05-01 12:07 48.98762 3.00269 25816 ft 391 kts 118°
2026-05-01 12:07 48.97573 3.03993 26335 ft 391 kts 118°
2026-05-01 12:07 48.96388 3.07698 26960 ft 388 kts 118°
2026-05-01 12:07 48.95206 3.11389 27486 ft 388 kts 118°
2026-05-01 12:08 48.94020 3.15084 27981 ft 389 kts 118°
2026-05-01 12:08 48.92835 3.18769 28601 ft 387 kts 118°
2026-05-01 12:08 48.91659 3.22426 29249 ft 384 kts 118°
2026-05-01 12:08 48.90487 3.26063 29826 ft 383 kts 118°
2026-05-01 12:09 48.89316 3.29693 30354 ft 382 kts 118°
2026-05-01 12:09 48.88146 3.33309 30792 ft 382 kts 118°
2026-05-01 12:09 48.86974 3.36930 31184 ft 382 kts 118°
2026-05-01 12:09 48.85799 3.40556 31214 ft 383 kts 118°
2026-05-01 12:10 48.82233 3.51526 31234 ft 394 kts 118°
2026-05-01 12:10 48.81150 3.55392 31231 ft 405 kts 107°
2026-05-01 12:11 48.80486 3.64097 31244 ft 424 kts 98°
2026-05-01 12:11 48.79970 3.73100 31234 ft 430 kts 98°
2026-05-01 12:12 48.79403 3.82140 31230 ft 430 kts 98°
2026-05-01 12:12 48.78809 3.91163 31232 ft 429 kts 98°
2026-05-01 12:13 48.78208 4.00139 31233 ft 427 kts 98°
2026-05-01 12:13 48.77606 4.09061 31235 ft 424 kts 99°
2026-05-01 12:14 48.76105 4.17519 31254 ft 414 kts 122°
2026-05-01 12:14 48.72821 4.24658 31236 ft 413 kts 127°
2026-05-01 12:15 48.69428 4.31679 31238 ft 413 kts 127°
2026-05-01 12:15 48.66622 4.37550 31232 ft 416 kts 127°
2026-05-01 12:16 48.63195 4.44779 31245 ft 423 kts 127°
2026-05-01 12:16 48.59771 4.52015 31248 ft 423 kts 127°
2026-05-01 12:17 48.56342 4.59248 31244 ft 423 kts 127°
2026-05-01 12:17 48.52914 4.66458 31247 ft 422 kts 127°
2026-05-01 12:18 48.49498 4.73622 31240 ft 420 kts 127°
2026-05-01 12:18 48.46091 4.80749 31238 ft 419 kts 127°
2026-05-01 12:19 48.42677 4.87869 31247 ft 420 kts 127°
2026-05-01 12:19 48.39251 4.94998 31241 ft 421 kts 127°
2026-05-01 12:20 48.35805 5.02152 31254 ft 423 kts 127°
2026-05-01 12:20 48.32343 5.09321 31249 ft 424 kts 127°
2026-05-01 12:21 48.29195 5.16818 31240 ft 427 kts 116°
2026-05-01 12:21 48.27327 5.25300 31246 ft 429 kts 108°
2026-05-01 12:22 48.25646 5.33908 31244 ft 430 kts 108°
2026-05-01 12:22 48.23933 5.42528 31241 ft 431 kts 108°
2026-05-01 12:23 48.22194 5.51136 31265 ft 432 kts 108°
2026-05-01 12:23 48.20428 5.59804 31242 ft 433 kts 108°
2026-05-01 12:24 48.18662 5.68427 31259 ft 433 kts 108°
2026-05-01 12:24 48.16888 5.77060 31257 ft 433 kts 108°
2026-05-01 12:25 48.14214 5.90005 31257 ft 434 kts 108°
2026-05-01 12:26 48.12423 5.98627 31256 ft 434 kts 108°
2026-05-01 12:26 48.09720 6.11571 31259 ft 435 kts 108°
2026-05-01 12:27 48.06999 6.24513 31267 ft 435 kts 108°
2026-05-01 12:28 48.04261 6.37463 31266 ft 436 kts 108°
2026-05-01 12:29 48.01503 6.50418 31276 ft 436 kts 108°
2026-05-01 12:29 47.98733 6.63363 31272 ft 436 kts 108°
2026-05-01 12:30 47.95631 6.76109 31283 ft 436 kts 112°
2026-05-01 12:31 47.93309 6.84455 31284 ft 436 kts 112°
2026-05-01 12:31 47.90983 6.92871 31284 ft 436 kts 112°
2026-05-01 12:32 47.88691 7.01244 31296 ft 437 kts 111°
2026-05-01 12:32 47.85243 7.13839 31288 ft 438 kts 111°
2026-05-01 12:33 47.82936 7.22227 31275 ft 439 kts 111°
2026-05-01 12:33 47.80616 7.30632 31280 ft 440 kts 111°
2026-05-01 12:34 47.78283 7.39055 31288 ft 441 kts 111°
2026-05-01 12:34 47.75939 7.47490 31278 ft 442 kts 112°
2026-05-01 12:35 47.73429 7.55827 31273 ft 443 kts 120°
2026-05-01 12:35 47.69834 7.63265 31287 ft 444 kts 126°
2026-05-01 12:36 47.66109 7.70583 31293 ft 445 kts 126°
2026-05-01 12:36 47.62406 7.77934 31297 ft 445 kts 125°
2026-05-01 12:37 47.58716 7.85310 31284 ft 445 kts 125°
2026-05-01 12:37 47.55029 7.92680 31295 ft 445 kts 125°
2026-05-01 12:38 47.51336 8.00040 31288 ft 445 kts 125°
2026-05-01 12:38 47.47612 8.07440 31287 ft 445 kts 125°
2026-05-01 12:39 47.43913 8.14769 31286 ft 445 kts 126°
2026-05-01 12:39 47.40214 8.22080 31294 ft 444 kts 126°
2026-05-01 12:40 47.36515 8.29371 31290 ft 444 kts 126°
2026-05-01 12:40 47.32814 8.36651 31293 ft 444 kts 125°
2026-05-01 12:41 47.29109 8.43918 31308 ft 444 kts 125°
2026-05-01 12:41 47.27038 8.47292 31294 ft 447 kts 140°
2026-05-01 12:41 47.24385 8.49665 31324 ft 448 kts 156°
2026-05-01 12:42 47.21381 8.50897 31308 ft 451 kts 172°
2026-05-01 12:42 47.18258 8.51315 31324 ft 451 kts 175°
2026-05-01 12:42 47.11991 8.52047 31299 ft 452 kts 174°
2026-05-01 12:43 47.05717 8.52926 31295 ft 453 kts 173°
2026-05-01 12:43 46.99425 8.53847 31086 ft 457 kts 173°
2026-05-01 12:44 46.96268 8.54304 30782 ft 456 kts 173°
2026-05-01 12:44 46.93115 8.54758 30391 ft 456 kts 173°
2026-05-01 12:44 46.86801 8.55665 29513 ft 456 kts 173°
2026-05-01 12:45 46.80487 8.56571 28657 ft 456 kts 173°
2026-05-01 12:45 46.77321 8.57025 28230 ft 457 kts 173°
2026-05-01 12:45 46.74109 8.57485 27788 ft 459 kts 173°
2026-05-01 12:46 46.70965 8.57935 27354 ft 461 kts 173°
2026-05-01 12:46 46.67765 8.58393 26931 ft 463 kts 173°
2026-05-01 12:46 46.64516 8.58856 26493 ft 465 kts 173°
2026-05-01 12:46 46.61288 8.59316 26053 ft 466 kts 173°
2026-05-01 12:47 46.58057 8.59774 25579 ft 468 kts 173°
2026-05-01 12:47 46.54833 8.60226 25130 ft 462 kts 173°
2026-05-01 12:47 46.51657 8.60670 24690 ft 455 kts 173°
2026-05-01 12:47 46.48520 8.61109 24273 ft 452 kts 174°
2026-05-01 12:48 46.46442 8.61229 23986 ft 452 kts 181°
2026-05-01 12:48 46.43345 8.60579 23504 ft 450 kts 194°
2026-05-01 12:48 46.40414 8.59039 23067 ft 447 kts 206°
2026-05-01 12:48 46.37753 8.56740 22631 ft 444 kts 213°
2026-05-01 12:49 46.35175 8.54303 22223 ft 441 kts 213°
2026-05-01 12:49 46.32589 8.51925 21781 ft 439 kts 212°
2026-05-01 12:49 46.29981 8.49667 21352 ft 436 kts 206°
2026-05-01 12:49 46.27148 8.48182 20955 ft 432 kts 191°
2026-05-01 12:50 46.24185 8.47635 20604 ft 427 kts 180°
2026-05-01 12:50 46.21237 8.47943 20217 ft 424 kts 171°
2026-05-01 12:50 46.18318 8.48473 19822 ft 423 kts 171°
2026-05-01 12:50 46.15398 8.48953 19421 ft 420 kts 172°
2026-05-01 12:51 46.12497 8.49389 19028 ft 418 kts 172°
2026-05-01 12:51 46.09619 8.50187 18623 ft 414 kts 160°
2026-05-01 12:51 46.04295 8.53121 17773 ft 407 kts 156°
2026-05-01 12:52 46.01665 8.54593 17381 ft 404 kts 157°
2026-05-01 12:52 45.96466 8.57428 16589 ft 397 kts 158°
2026-05-01 12:52 45.93885 8.58811 16207 ft 394 kts 158°
2026-05-01 12:53 45.88897 8.61846 15418 ft 384 kts 142°
2026-05-01 12:53 45.86860 8.64248 15079 ft 375 kts 138°
2026-05-01 12:53 45.84874 8.66630 14703 ft 369 kts 139°
2026-05-01 12:54 45.82902 8.68947 14342 ft 366 kts 139°
2026-05-01 12:54 45.78971 8.73488 13540 ft 361 kts 140°
2026-05-01 12:54 45.77022 8.75725 13159 ft 358 kts 140°
2026-05-01 12:55 45.72818 8.79432 12426 ft 354 kts 152°
2026-05-01 12:55 45.70621 8.81004 12067 ft 351 kts 152°
2026-05-01 12:55 45.68451 8.82584 11718 ft 350 kts 151°
2026-05-01 12:56 45.66311 8.84192 11412 ft 343 kts 151°
2026-05-01 12:56 45.64275 8.85747 11374 ft 330 kts 150°
2026-05-01 12:56 45.62262 8.87284 11381 ft 328 kts 152°
2026-05-01 12:56 45.60093 8.88318 11381 ft 330 kts 168°
2026-05-01 12:57 45.57821 8.88857 11381 ft 331 kts 169°
2026-05-01 12:57 45.53297 8.89999 11348 ft 328 kts 168°
2026-05-01 12:57 45.51063 8.90599 11119 ft 325 kts 168°
2026-05-01 12:58 45.48869 8.91195 10982 ft 315 kts 168°
2026-05-01 12:58 45.46759 8.91770 10910 ft 304 kts 168°
2026-05-01 12:58 45.44716 8.92326 10832 ft 294 kts 168°
2026-05-01 12:59 45.40751 8.93403 10305 ft 289 kts 167°
2026-05-01 12:59 45.38750 8.93947 9995 ft 288 kts 168°
2026-05-01 12:59 45.34811 8.95013 9411 ft 286 kts 167°
2026-05-01 13:00 45.30878 8.96078 9345 ft 287 kts 167°
2026-05-01 13:00 45.28926 8.96607 9328 ft 284 kts 167°
2026-05-01 13:01 45.24981 8.97681 8490 ft 292 kts 167°
2026-05-01 13:01 45.22997 8.98220 7991 ft 289 kts 167°
2026-05-01 13:01 45.19089 8.99268 7021 ft 283 kts 167°
2026-05-01 13:02 45.17161 8.99784 6513 ft 280 kts 167°
2026-05-01 13:07 45.22112 8.84094 3982 ft 242 kts 355°
2026-05-01 13:07 45.23788 8.83819 3989 ft 238 kts 354°
2026-05-01 13:07 45.25426 8.83501 3973 ft 238 kts 352°
2026-05-01 13:08 45.27067 8.83129 3957 ft 237 kts 352°
2026-05-01 13:08 45.28692 8.82730 3942 ft 237 kts 351°
2026-05-01 13:08 45.30304 8.82309 3955 ft 235 kts 350°
2026-05-01 13:08 45.31912 8.81885 3957 ft 238 kts 350°
2026-05-01 13:09 45.33561 8.81443 3956 ft 242 kts 350°
2026-05-01 13:09 45.35217 8.80994 3955 ft 242 kts 350°
2026-05-01 13:09 45.36864 8.80543 3953 ft 240 kts 350°
2026-05-01 13:09 45.38500 8.80090 3975 ft 240 kts 350°
2026-05-01 13:10 45.40147 8.79639 3969 ft 241 kts 351°
2026-05-01 13:10 45.41802 8.79219 3943 ft 242 kts 350°
2026-05-01 13:10 45.43453 8.78776 4008 ft 238 kts 350°
2026-05-01 13:10 45.45036 8.78338 3964 ft 226 kts 349°
2026-05-01 13:11 45.46560 8.77915 3729 ft 220 kts 349°
2026-05-01 13:11 45.48042 8.77502 3446 ft 214 kts 349°
2026-05-01 13:11 45.49488 8.77102 3159 ft 209 kts 349°
2026-05-01 13:11 45.50897 8.76711 2879 ft 204 kts 349°
2026-05-01 13:12 45.52281 8.76327 2604 ft 200 kts 349°
2026-05-01 13:12 45.53640 8.75949 2356 ft 199 kts 349°
2026-05-01 13:12 45.55002 8.75573 2067 ft 199 kts 349°
2026-05-01 13:12 45.56345 8.75200 1801 ft 195 kts 349°
2026-05-01 13:13 45.57631 8.74843 1548 ft 182 kts 349°
2026-05-01 13:13 45.58820 8.74512 1333 ft 165 kts 349°
2026-05-01 13:13 45.59924 8.74242 1081 ft 158 kts 348°
2026-05-01 13:13 45.60979 8.73924 904 ft 153 kts 349°
2026-05-01 13:14 45.61987 8.73638 753 ft 140 kts 349°
2026-05-01 13:14 45.62756 8.73428 745 ft 62 kts 349°
2026-05-01 13:14 45.63061 8.73318 741 ft 43 kts 334°
2026-05-01 13:14 45.63266 8.73060 749 ft 37 kts 305°
2026-05-01 13:15 45.63353 8.72877 750 ft 14 kts 303°
2026-05-01 13:15 45.63402 8.72760 748 ft 13 kts 290°
2026-05-01 13:15 45.63405 8.72630 751 ft 15 kts 261°
2026-05-01 13:15 45.63383 8.72463 750 ft 18 kts 259°
2026-05-01 13:16 45.63378 8.72420 750 ft 0 kts 259°
2026-05-01 13:16 45.63373 8.72387 746 ft 11 kts 259°
2026-05-01 13:17 45.63311 8.71928 751 ft 16 kts 259°
2026-05-01 13:17 45.63288 8.71758 749 ft 18 kts 259°
2026-05-01 13:18 45.63348 8.71670 751 ft 7 kts 349°
2026-05-01 13:18 45.63364 8.71665 748 ft 0 kts 349°